Regional Weather Roundup
Issued by NWS

Home | Current Version | Previous Version | Text Only | Print | Product List | Glossary On
Versions: 1 2 3 4 5 6 7 8 9 10 11 12 13 14 15 16 17 18 19 20 21 22 23 24 25 26 27
000
ASUS42 KTBW 240010
RWRFL
FLORIDA REGIONAL WEATHER ROUNDUP
NATIONAL WEATHER SERVICE TAMPA BAY RUSKIN FL
800 PM EDT WED APR 23 2014

NOTE: "FAIR" INDICATES FEW OR NO CLOUDS BELOW 12,000 FEET WITH NO
SIGNIFICANT WEATHER AND/OR OBSTRUCTIONS TO VISIBILITY.


FLZ001>010-012>015-112-114-115-240100-
PANHANDLE FLORIDA

CITY           SKY/WX    TMP DP  RH WIND       PRES   REMARKS
PENSACOLA      PTCLDY    74  62  66 SW9       29.89S
PENSACOLA NAS  CLEAR     71  65  81 SW9       29.89S
MILTON NAS     PTCLDY    73  61  65 S9        29.89R
CRESTVIEW      CLOUDY    78  63  59 S8        29.90R
DUKE FIELD     PTCLDY    76  63  64 SW10      29.88S
VALPARAISO     PTCLDY    72  66  82 W8        29.89S
MARY ESTHER    CLEAR     71  63  75 SW8       29.89S
PANAMA CITY    FAIR      73  62  68 SW7       29.89R
TYNDALL AFB    CLEAR     71  69  93 W7        29.90S
APALACHICOLA   PTCLDY    73  66  78 SW9       29.90S

STATION/POSITION SKY/WX   TEMP    WIND        PRES    WAVE   SWELL
                          AIR SEA DIR/SP/G            HT/PER HT/PER
                          (F)     (DEG/KT/KT) (MB)    (FT/S) (FT/S)
30.1N   87.6W              70 71  220/ 10/ 10 1012.6R   1
29.2N   88.2W              72 74   CALM  /  2 1013.0F
28.8N   86.0W              71 73  250/  4/  6 1013.7R   1/ 4
PANAMA CITY BEAC           70 69  260/  7/  7 1012.3S
CAPE SAN BLAS    NOT AVBL
TOWER C                    69     240/ 11/ 11 1012.9R
28.5N   84.5W              71 72  250/  6/  6 1013.2R   1/ 4

$$
FLZ011-016>038-118-127-128-134-139-239-240100-
NORTH FLORIDA

CITY           SKY/WX    TMP DP  RH WIND       PRES   REMARKS
MARIANNA       CLEAR     80  60  50 W3        29.87S
TALLAHASSEE    PTCLDY    78  65  63 S7        29.89R
PERRY          CLEAR     70  68  94 SW8       29.91R
CROSS CITY       N/A     72  65  78 SW7       29.90R
GAINESVILLE    PTCLDY    77  64  64 W9        29.88R
MAYPORT NAS    PTCLDY    72  64  76 SE10      29.88R
JACKSONVILLE   PTCLDY    76  64  66 CALM      29.86R
JAX NAS        PTCLDY    84  59  42 W5        29.87R
JAX CRAIG      CLEAR     76  64  66 SE3       29.87R
JAX CECIL      PTCLDY    77  63  61 VRB5      29.87R
FERNANDINA BEA FAIR      73  61  64 S3        29.86R
ST AUGUSTINE   CLEAR     72  62  71 S8        29.89R

STATION/POSITION SKY/WX   TEMP    WIND        PRES    WAVE   SWELL
                          AIR SEA DIR/SP/G            HT/PER HT/PER
                          (F)     (DEG/KT/KT) (MB)    (FT/S) (FT/S)
SHELL POINT                73     220/ 11/ 12 1011.0R
KEATON BEACH               70     240/ 10/ 10 1012.9R
CEDAR KEY                  70     270/  6/  9 1013.1S
FERNANDINA                 73 66  160/  9/ 12 1010.8R
30.7N   81.3W                 69                N/A     1/ 9
MAYPORT                    72 66  170/  6/ 10   N/A
31.4N   80.9W              69 68  190/  6/  8 1011.1R   1/ 9   2/ 9
ST AUGUSTINE               69     170/  9/ 10 1012.5R

$$
FLZ040-043>046-052-053-057-058-063-144-240100-
INTERIOR CENTRAL FLORIDA

CITY           SKY/WX    TMP DP  RH WIND       PRES   REMARKS
OCALA          CLEAR     73  61  64 SW7       29.91R
THE VILLAGES     N/A     75  63  64 W7        29.90R
LEESBURG       CLEAR     78  64  61 W8        29.90R
SANFORD        PTCLDY    76  64  66 SE7       29.89R
ORLANDO EXEC   CLEAR     82  56  40 NW5       29.89R
ORLANDO INTL   PTCLDY    80  58  46 SW5       29.89R
KISSIMMEE      PTCLDY    81  63  54 CALM      29.90R
WINTER HAVEN     N/A    N/A N/A N/A MISG      29.91R
LAKELAND       CLEAR     77  61  57 W6        29.91R
BARTOW         FAIR      75  63  64 SW8       29.91R
OKEECHOBEE     CLEAR     75  63  64 S5        29.90S

$$
FLZ041-047-054-059-064-141-147-240100-
EAST CENTRAL FLORIDA

CITY           SKY/WX    TMP DP  RH WIND       PRES   REMARKS
DAYTONA BEACH  PTCLDY    73  62  68 VRB3      29.90R
NEW SMYRNA BEA CLEAR     73  63  68 SE7       29.90R
JFK SPACE CTR  CLEAR     73  63  70 SE6       29.90R
TITUSVILLE     CLEAR    N/A N/A N/A SE9       29.90R
CAPE CANAVERAL CLEAR     72  64  75 SE6       29.89R
PATRICK AFB    CLEAR     74  67  79 SE7       29.90R
MELBOURNE      CLEAR     75  63  66 SE8       29.90R
VERO BEACH     PTCLDY    73  65  75 SE7       29.91R
FT PIERCE      PTCLDY    74  64  71 SE8       29.90S

STATION/POSITION SKY/WX   TEMP    WIND        PRES    WAVE   SWELL
                          AIR SEA DIR/SP/G            HT/PER HT/PER
                          (F)     (DEG/KT/KT) (MB)    (FT/S) (FT/S)
28.5N   80.2W              76 80  110/  6/  8 1012.4R
28.9N   78.5W              74 75  270/  4/  6 1013.0R   3/ 8   3/ 8
TRIDENT PIER               74 75  100/  4/  5 1011.7R
28.4N   80.5W                 74                N/A     1/ 9
27.6N   80.2W                 74                N/A     2/ 9

$$
FLZ050-056-061-142-242-148-248-149-249-151-251-155-255-
160-260-240100-
WEST CENTRAL FLORIDA

CITY           SKY/WX    TMP DP  RH WIND       PRES   REMARKS
CRYSTAL RIVER  FAIR      70  63  78 W3        29.91S
INVERNESS      FAIR      72  61  68 CALM      29.92R
BROOKSVILLE    CLEAR     69  62  78 W7        29.93R
CLEARWATER     CLEAR     70  62  76 W7        29.92R
TAMPA INTL     CLEAR     71  62  73 W9        29.92R
TAMPA EXEC     CLEAR     75  61  60 CALM      29.92R
PLANT CITY     CLEAR     75  59  57 SW7       29.93R
MACDILL AFB    CLEAR     72  65  77 NW8       29.92R
PETER O KNIGHT CLEAR     73  64  73 W6        29.92R
ST PETERSBURG  CLEAR     72  64  76 W9        29.91R
SARASOTA       CLEAR     71  63  75 W7        29.92S
VENICE         FAIR      70  63  78 W6        29.95R

STATION/POSITION SKY/WX   TEMP    WIND        PRES    WAVE   SWELL
                          AIR SEA DIR/SP/G            HT/PER HT/PER
                          (F)     (DEG/KT/KT) (MB)    (FT/S) (FT/S)
CEDAR KEY                  70     270/  6/  9 1013.1S
28.5N   84.5W              71 72  250/  6/  6 1013.2R   1/ 4
27.3N   84.3W                 76                N/A     1/ 4
CLEARWATER BEACH           70 72  290/  6/  8 1012.9S
MIDDLE TAMPA BAY           71     290/ 10/ 11 1013.4S
VENICE                     70 74  280/  6/  7 1013.4R

$$
FLZ066-069-070-075>078-162-262-165-265-240100-
SOUTHWEST FLORIDA AND KEYS

CITY           SKY/WX    TMP DP  RH WIND       PRES   REMARKS
PUNTA GORDA    CLEAR     74  59  59 W9        29.95R
FT MYERS       CLEAR     74  62  66 W10       29.93R
SOUTHWEST INTL CLEAR     73  61  65 NW8       29.93R
NAPLES         PTCLDY    73  66  78 W10       29.94R
MARATHON       CLEAR     75  64  68 NW5       29.93R
KEY WEST NAS   PTCLDY    74  64  71 N7        29.93S
KEY WEST INTL  CLEAR     76  65  68 NW7       29.94R

STATION/POSITION SKY/WX   TEMP    WIND        PRES    WAVE   SWELL
                          AIR SEA DIR/SP/G            HT/PER HT/PER
                          (F)     (DEG/KT/KT) (MB)    (FT/S) (FT/S)
VENICE                     70 74  280/  6/  7 1013.4R
NAPLES                     72 79  300/ 10/ 12 1014.1S
DRY TORTUGAS     NOT AVBL
NW FL BAY                  76     300/ 10/ 12 1013.6R
SOMBRERO KEY               75     320/ 10/ 11 1014.3R
LONG KEY                   75 80  290/  9/ 11 1014.3R
MOLASSES REEF              75 80  270/ 13/ 14 1013.1R

$$
FLZ067-068-071>074-168-172>174-240100-
SOUTHEAST FLORIDA

CITY           SKY/WX    TMP DP  RH WIND       PRES   REMARKS
W PALM BEACH   PTCLDY    77  65  66 E8        29.90R
FT LAUDER-EXEC CLEAR     77  66  68 SE6       29.90R
FT LAUDERDALE  PTCLDY    79  67  66 S6        29.89S
POMPANO BEACH  CLEAR     78  67  68 S8        29.91R
PEMBROKE PINES CLEAR     79  67  66 SE8       29.91R
OPA LOCKA      CLEAR     79  66  64 S7        29.90R
MIAMI          PTCLDY    79  68  69 SE7       29.90R
WEST KENDALL   CLEAR     76  63  64 W13       29.91R
HOMESTEAD      CLEAR     77  65  65 W14       29.91R

STATION/POSITION SKY/WX   TEMP    WIND        PRES    WAVE   SWELL
                          AIR SEA DIR/SP/G            HT/PER HT/PER
                          (F)     (DEG/KT/KT) (MB)    (FT/S) (FT/S)
PORT EVERGLADES            77     160/  8/ 11 1012.4
VIRGINIA KEY               78 80  180/  8/ 11 1012.6S
LAKE WORTH                 77 80  150/  5/  6 1012.3S
FOWEY ROCKS                77 78  200/ 15/ 17 1012.7R
SETTLEMENT POINT           76      CALM  /  1 1013.8R

$$




USA.gov is the U.S. government's official web portal to all federal, state and local government web resources and services.